Regional Weather Roundup
Issued by NWS

Home | Current Version | Previous Version | Graphics & Text | Print | Product List | Glossary On
Versions: 1 2 3 4 5 6 7 8 9 10 11 12 13 14 15 16 17 18 19 20 21 22 23 24 25 26 27 28 29 30 31 32 33 34 35 36 37 38 39 40 41 42 43 44 45 46 47 48 49 50
086
ASUS45 KTFX 250710
RWRMT
MONTANA REGIONAL WEATHER ROUNDUP
NATIONAL WEATHER SERVICE GREAT FALLS MT
1200 AM MST SAT FEB 25 2017

NOTE: "FAIR" INDICATES FEW OR NO CLOUDS BELOW 12000 FEET WITH NO
SIGNIFICANT WEATHER AND/OR OBSTRUCTIONS TO VISIBILITY.

MTZ001>007-043-250800-
WEST OF THE DIVIDE

CITY           SKY/WX    TMP DP  RH WIND       PRES   REMARKS
KALISPELL      PTCLDY    16  13  88 CALM      30.09S
MISSOULA       PTCLDY    21  14  74 CALM      30.11S
BUTTE          LGT SNOW  17  13  84 S5        29.97F FOG
MULLAN PASS    MOCLDY    12  11  95 CALM      29.96S
ANACONDA         N/A     19   9  63 SW5       30.01R
DEER LODGE       N/A     19  10  68 NW3       30.04S
EUREKA           N/A     21  12  68 CALM      30.09F
HAMILTON         N/A     25  16  68 CALM      30.08S
LIBBY            N/A     14  12  92 SE3       30.12S
PLAINS           N/A     17   8  67 CALM      30.13F
RONAN            N/A     21  15  78 CALM      30.11S
$$

MTZ008-052>055-250800-
SOUTHWEST MONTANA

CITY           SKY/WX    TMP DP  RH WIND       PRES   REMARKS
BOZEMAN        LGT SNOW  24  22  91 N6        30.01S FOG     WCI  17
DILLON         CLOUDY    21  13  71 SW12      29.97F WCI   9
W YELLOWSTONE  LGT SNOW  14   9  79 SW5       29.97F
ENNIS          CLOUDY    19  12  73 S13       30.03S WCI   7
THREE FORKS      N/A     24   4  42 SW5       30.00F
TWIN BRIDGES     N/A     22  16  78 MISG      29.99S
$$

MTZ009-010-012-014-046-048-049-054-250800-
EAST SLOPES AND CENTRAL MONTANA

CITY           SKY/WX    TMP DP  RH WIND       PRES   REMARKS
CUT BANK       CLEAR     12   9  87 W3        29.99F
GREAT FALLS    PTCLDY    19  15  84 S7        30.02F WCI  10
MALMSTROM AFB  CLOUDY    22  19  89 SW8       30.03F WCI  12
HELENA         CLOUDY    26  13  57 W7        30.02F WCI  18
AUGUSTA        MOCLDY    19  13  79 SW5       29.99F
BOWMANS CRNR     N/A     19  13  79 W6        29.98F WCI  10
CHOTEAU          N/A     19  16  86 S6        30.02F WCI  11
CONRAD           N/A     13  11  92 NW2       30.02F
POWER            N/A     15  13  92 SW7       30.01F WCI   5
RAYNESFORD     FLURRIES  18  15  88 CALM      30.01F
ULM              N/A     18  16  91 MISG      30.03F
$$

MTZ011-013-016-021-045-047-050-051-250800-
NORTH CENTRAL MONTANA

CITY           SKY/WX    TMP DP  RH WIND       PRES   REMARKS
HAVRE          PTCLDY    17  15  92 SW10      30.04F WCI   5
LEWISTOWN      CLOUDY    20  16  84 W8        29.99F WCI  10
N BAR RANCH    CLOUDY    16  10  79 CALM      30.00F
CHINOOK          N/A     19  19 100 CALM      30.05F
DENTON         CLOUDY    21  18  90 W14       29.98F WCI   8
FORT BENTON      N/A     21  16  79 MISG      30.07S
GEYSER         MOCLDY    21  17  86 SW7       30.00S WCI  12
GRASS RANGE    MOCLDY    21  19  91 W15       29.97F WCI   8
JUDITH GAP     CLOUDY    18  14  84 W9        29.97S WCI   7
ROY              N/A     19  15  85 MISG      29.98F
STANFORD       MOCLDY    19  15  86 CALM      29.98F
WINIFRED       MOCLDY    18  17  93 W6        30.00F WCI  10
$$

MTZ017>020-022>027-061-062-250800-
NORTHEAST MONTANA

CITY           SKY/WX    TMP DP  RH WIND       PRES   REMARKS
GLASGOW        PTCLDY    19  16  88 NW8       30.02F WCI   9
JORDAN           N/A     27  23  85 NW9       30.01S WCI  18
SIDNEY         LGT SNOW  27  21  80 CALM      30.01F FOG
WOLF POINT     FOG       24  22  91 CALM      30.03F VSB 3/4
PLENTYWOOD       N/A     19  18  93 NW5       30.00S
POPLAR           N/A     27  25  93 CALM      30.03F
SCOBEY           N/A     11   3  70 CALM      29.98F
$$

MTZ028>42-056>058-250800-
SOUTHCENTRAL AND SOUTHEAST MONTANA

CITY           SKY/WX    TMP DP  RH WIND       PRES   REMARKS
BAKER          CLOUDY    20  16  84 CALM      29.99F
BILLINGS       CLOUDY    24  20  84 SW3       30.02F
LIVINGSTON     FLURRIES  22  20  92 W6        29.98F WCI  14
MILES CITY     CLOUDY    29  23  78 W6        30.01F WCI  23
BIG TIMBER     CLOUDY    21  19  93 W3        30.02S FOG
EKALAKA          N/A     23  17  78 CALM      29.94S
FORSYTH          N/A     27  27 100 W5        30.02S
HARLOWTON      MOCLDY    19  17  90 N6        29.99F WCI  11
LAUREL           N/A     22  14  71 SW1       29.99F
$$

REGIONAL REPORTS...DAKOTAS

CITY           SKY/WX    TMP DP  RH WIND       PRES   REMARKS
WILLISTON      CLOUDY    23  20  88 SW5       30.01F
MINOT          FLURRIES  23  17  78 SW6       29.99F WCI  16
DICKINSON      MOCLDY    18  14  84 SW5       29.97F
BEACH            N/A    N/A N/A N/A MISG        N/A
CROSBY         CLOUDY    23  23 100 NW7       30.01F WCI  15
TIOGA          CLOUDY    23  21  93 W9        29.99F WCI  13
WATFORD CITY   LGT SNOW  21  19  93 SW6       30.01F WCI  14
BISMARCK       CLOUDY    17  14  88 CALM      30.06F
GRAND FORKS    CLEAR     16   8  71 CALM      30.06F
FARGO          CLEAR     15  11  83 NW6       30.07F WCI   6
BUFFALO SD       N/A     21  16  81 W6        29.92F WCI  13
RAPID CITY     CLOUDY    13  10  88 CALM      30.00F
$$

REGIONAL REPORTS...WYOMING/IDAHO/WASHINGTON

CITY           SKY/WX    TMP DP  RH WIND       PRES   REMARKS
GILLETTE       CLOUDY    19  13  77 W6        29.96S WCI  11
SHERIDAN       MOCLDY    22  17  81 VRB6      29.99F WCI  14
BUFFALO WY     CLOUDY    20  14  77 NW9       29.95S WCI   9
CODY           CLOUDY    15  13  91 CALM      29.98F
YELLOWSTONE LA   N/A      2   0  91 CALM      29.94F
IDAHO FALLS    MOCLDY    18  11  74 S10       30.09F WCI   6
SALMON         CLOUDY    25  21  86 S5        30.05S
BOISE          PTCLDY    26  17  68 SE6       30.15S WCI  19
SPOKANE        FOG       22  20  92 CALM      30.15S VSB 3/4
$$

REGIONAL REPORTS...ALBERTA

CITY           SKY/WX    TMP DP  RH WIND       PRES   REMARKS
EDMONTON       CLOUDY    12   9  85 N2        30.05F
CALGARY        LGT SNOW  14  10  85 SE7       29.97F WCI   4
LETHBRIDGE     CLOUDY    21 N/A N/A NE7       30.01F WCI  13
MEDICINE HAT   LGT SNOW  21  19  93 N8        30.05F VSB 1   WCI  12
MILK RIVER       N/A     19  19 100 W1          N/A
$$

REGIONAL REPORTS...SASKATCHEWAN

CITY           SKY/WX    TMP DP  RH WIND       PRES   REMARKS
SWIFT CURRENT  FLURRIES  16  12  86 N16       30.00F WCI   0
REGINA         PTCLDY    18  16  93 NW10      30.00F WCI   6
SASKATOON      PTCLDY     9   3  78 NW8       30.10F WCI  -4
CYPRESS HILLS    N/A     16  14  93 N2          N/A
VAL MARIE        N/A     12  10  92 NW1         N/A
ROCKGLEN         N/A     16  14  93 NW7         N/A  WCI   6
ASSINIBOIA       N/A      7   3  85 S2          N/A
$$




USA.gov is the U.S. government's official web portal to all federal, state and local government web resources and services.